{"data":{"norad_id":68042,"intl_designator":"2026-041C","name":"STARLINK-36925","alt_names":[],"object_type":"PAYLOAD","status":"ACTIVE","operator":null,"country":"US","launch_date":"2026-03-02","launch_site_code":"AFETR","launch_vehicle":null,"mission":null,"orbit_class":"UNKNOWN","rcs_meters":null,"size_class":null,"mass_kg":null,"dimensions":null,"purposes":["comms"],"wikipedia_slug":null,"has_3d_model":false,"image_url":null,"decayed_at":null,"tle_current":{"epoch":"2026-05-25T03:25:23.409120Z","epoch_age_seconds":58804,"freshness":"FRESH","line1":"1 68042U 26041C   26145.14263205  .00013159  00000+0  45551-3 0  9995","line2":"2 68042  53.1600  54.7653 0001239  92.6236 267.4906 15.30207825 13090","mean_motion":15.30207825,"eccentricity":0.0001239,"inclination_deg":53.16,"raan_deg":54.7653,"arg_perigee_deg":92.6236,"mean_anomaly_deg":267.4906,"bstar":0.00045551,"rev_number":1309,"period_min":94.104864481398,"perigee_km":474.34257805275,"apogee_km":476.04083290596,"semimajor_km":6853.3287054794,"source":"CELESTRAK","updated_at":"2026-05-25T13:38:21.810364Z"}}}